Regional Weather Roundup
Issued by NWS San Angelo, TX

Home | Current Version | Previous Version | Text Only | Print | Product List | Glossary On
Versions: 1 2 3 4 5 6 7 8 9 10 11 12 13 14 15 16 17 18 19 20 21 22 23 24 25 26 27 28 29 30 31 32 33 34 35 36 37 38 39 40 41 42 43 44 45 46 47 48 49 50
000
ASUS44 KSJT 261611
RWRSJT
WEST CENTRAL TEXAS REGIONAL WEATHER ROUNDUP
NATIONAL WEATHER SERVICE SAN ANGELO TX
1100 AM CDT TUE JUL 26 2016

NOTE: "FAIR" INDICATES FEW OR NO CLOUDS BELOW 12,000 FEET WITH NO
SIGNIFICANT WEATHER AND/OR OBSTRUCTIONS TO VISIBILITY.

TXZ049-054-064>066-071>073-076>078-098-099-113-114-127-128-139-140-
154-155-168>170-261700
...LOCATIONS ACROSS WEST CENTRAL TEXAS...

CITY           SKY/WX    TMP DP  RH WIND       PRES   REMARKS
SAN ANGELO     SUNNY     87  69  54 N3        30.02F
ABILENE        SUNNY     88  67  49 N6        30.03F
DYESS AFB      SUNNY     89  68  50 VRB6      30.01F
JUNCTION       SUNNY     85  67  54 VRB3      30.01S
SWEETWATER     SUNNY     87  66  50 E7        30.08S
BROWNWOOD      MOSUNNY   86  68  54 E5        30.01S
COLEMAN        SUNNY     86  67  54 E6        30.03S
SONORA         SUNNY     86  68  54 CALM      30.06S
OZONA          FAIR      86  66  51 NE3       30.06S
BRADY          NOT AVBL
$$

TEXAS PANHANDLE/OKLAHOMA PANHANDLE

CITY           SKY/WX    TMP DP  RH WIND       PRES   REMARKS
AMARILLO       SUNNY     85  58  39 NW10      30.13F
BORGER         SUNNY     86  63  45 VRB5      30.10F
CANADIAN       SUNNY     85  71  63 CALM      30.06S
DALHART        SUNNY     85  56  37 W5        30.16F
DUMAS          SUNNY     84  60  44 NW6       30.14F
GUYMON         NOT AVBL
HEREFORD       SUNNY     87  55  33 NW7       30.15F
PAMPA          SUNNY     86  68  53 NW3       30.12S
PERRYTON       SUNNY     85  71  63 NE3       30.10S
$$

SOUTHERN PANHANDLE/SOUTH PLAINS/ROLLING PLAINS

CITY           SKY/WX    TMP DP  RH WIND       PRES   REMARKS
LUBBOCK        MOSUNNY   84  60  44 N10       30.11F
SNYDER           N/A     82  68  63 N3        30.07R
CHILDRESS      SUNNY     88  70  55 SE7       30.03S
SEMINOLE       SUNNY     85  58  39 NE13      30.12S
$$

PERMIAN BASIN

CITY           SKY/WX    TMP DP  RH WIND       PRES   REMARKS
MIDLAND        PTSUNNY   86  63  45 N9        30.08S
ODESSA         SUNNY     86  62  44 NE13G20   30.09F
WINK           MOSUNNY   87  61  41 NE10      30.06F
$$

FAR WEST/SOUTHWEST MOUNTAINS/TRANS PECOS

CITY           SKY/WX    TMP DP  RH WIND       PRES   REMARKS
ALPINE         SUNNY     83  57  41 NE6       30.23S
DRYDEN           N/A     86  69  56 VRB3      30.00F
EL PASO        MOSUNNY   84  58  40 N10       30.14F
FORT STOCKTON  SUNNY     86  63  45 VRB3      30.07F
GUADALUPE PASS SUNNY     79  57  46 E15       30.25S
MARFA          SUNNY     84  57  39 VRB5      30.20F
PECOS          SUNNY     87  61  41 NE3       30.06S
$$

DALLAS/FORT WORTH METROPLEX

CITY           SKY/WX    TMP DP  RH WIND       PRES   REMARKS
DFW AIRPORT    MOSUNNY   89  72  56 SE5       29.97F
FTW MEACHAM    SUNNY     90  70  51 VRB5      29.98S
DAL-EXECUTIVE  SUNNY     87  71  58 VRB5      29.98S
GRAND PRAIRIE  SUNNY     88  70  55 CALM      30.00
ADDISON        SUNNY     88  72  58 CALM      29.99F
MESQUITE       SUNNY     84  73  70 VRB3      29.99R
LANCASTER      MOSUNNY   88  72  58 E3        29.99S
$$

NORTH CENTRAL TEXAS

CITY           SKY/WX    TMP DP  RH WIND       PRES   REMARKS
SHRMAN/DENISON SUNNY     89  73  59 E3        30.00S
GAINESVILLE    SUNNY     87  72  60 E3        30.01S
BRIDGEPORT     SUNNY     86  72  62 E5        30.02S
DENTON         SUNNY     88  72  58 VRB6      29.98S
WAXAHACHIE     SUNNY     86  73  64 N3        29.99S
GRANBURY       SUNNY     88  69  52 SE3       30.00S
$$

WESTERN NORTH TEXAS

CITY           SKY/WX    TMP DP  RH WIND       PRES   REMARKS
WICHITA FALLS  CLOUDY    86  71  60 E5        30.00S
VERNON         CLOUDY    84  68  58 SE8       30.02F
BRECKENRIDGE   SUNNY     89  67  47 CALM      30.00F
COMANCHE       SUNNY     86  71  61 E6        30.02S
$$

CENTRAL AND SOUTH CENTRAL TEXAS

CITY           SKY/WX    TMP DP  RH WIND       PRES   REMARKS
AUSTIN/BERGSTM PTSUNNY   83  75  77 VRB3      29.96S
WACO           MOSUNNY   86  73  65 N5        29.97S
HILLSBORO      SUNNY     84  72  66 NW3       29.98S
TEMPLE         PTSUNNY   84  74  71 CALM      29.98S
KILLEEN-GRAY   NOT AVBL
FORT HOOD      NOT AVBL
GEORGETOWN     CLOUDY    82  72  69 NE5       29.98S
LAGO VISTA     PTSUNNY   83  73  71 E5        30.00S
SAN MARCOS     PTSUNNY   82  75  78 NE5       29.99S
NEW BRAUNFELS  CLOUDY    80  75  84 N7        29.95S
RANDOLPH AFB   CLOUDY    82  77  83 NE7       29.96R
SAN ANTONIO    CLOUDY    82  74  76 E7        29.97S
STINSON        PTSUNNY   85  75  72 E5        29.94S
PLEASANTON     NOT AVBL
LA GRANGE        N/A     82  74  78 E5        29.95S
GIDDINGS       MOSUNNY   85  74  68 NE3       30.00F
$$

EAST TEXAS

CITY           SKY/WX    TMP DP  RH WIND       PRES   REMARKS
PARIS          MOSUNNY   88  70  55 NE3       29.98S
CLARKSVILLE    NOT AVBL
TYLER          MOSUNNY   88  72  58 CALM      29.97R
LONGVIEW       MOSUNNY   87  74  64 E9        29.96S
PALESTINE      MOSUNNY   84  75  73 NE7       29.98S
NACOGDOCHES    PTSUNNY  N/A N/A N/A N6        29.95S
$$

TEXAS HILL COUNTRY AND EDWARDS PLATEAU

CITY           SKY/WX    TMP DP  RH WIND       PRES   REMARKS
LLANO          CLOUDY    82  79  89 E3        30.03R
HORSESHOE BAY  CLOUDY    82  73  73 CALM      29.99F
KERRVILLE      PTSUNNY   82  74  77 E5        30.01S
FREDERICKSBRG  PTSUNNY   81  69  67 NE7       30.02S
ROCKSPRINGS    MOSUNNY   84  70  61 S5        30.05S
HONDO          LGT RAIN  79  75  87 NE5       29.99R
UVALDE         CLOUDY    84  70  63 E6        29.96F
DEL RIO        CLOUDY    88  69  53 SE7       29.94S
$$

SOUTHEAST TEXAS

CITY           SKY/WX    TMP DP  RH WIND       PRES   REMARKS
COLLEGE STN    MOSUNNY   84  73  69 NE5       29.97S
CALDWELL       MOSUNNY   84  72  65 NE6       29.99F
CROCKETT       MOSUNNY   82  73  74 E3        29.99F
BRENHAM        MOSUNNY   83  75  77 NE3       29.97S
HUNTSVILLE     PTSUNNY   78  73  84 CALM      29.97S
CONROE         CLOUDY    79  75  87 CALM      29.97S
HOUSTON BUSH   PTSUNNY   85  76  74 NE7       29.94F
HOUSTON HOBBY  PTSUNNY   83  75  77 CALM      29.94S
PERLAND        PTSUNNY   85  73  67 CALM      29.96S
WHARTON        CLOUDY    80  78  95 CALM      29.97R
$$

THE UPPER TEXAS COAST

CITY           SKY/WX    TMP DP  RH WIND       PRES   REMARKS
ORANGE         CLOUDY    83  74  73 N3        29.97R
PORT ARTHUR    MOSUNNY   87  73  62 NE3       29.94S
GALVESTON      MOSUNNY   84  76  76 S5        29.96S
ANGLETON       CLOUDY    83  76  79 S7        29.96R
BAY CITY       CLOUDY    80  76  88 SE5       29.97R
$$

TEXAS COASTAL BEND, RIO GRANDE PLAINS DEEP SOUTH TEXAS

CITY           SKY/WX    TMP DP  RH WIND       PRES   REMARKS
VICTORIA       LGT RAIN  77  75  93 SE12      29.96R
BEEVILLE       RAIN      80  79  99 E3        29.95R
ROCKPORT       CLOUDY    83  76  79 NE12      29.95R
PORT ARANSAS   CLOUDY    85  76  75 S8        29.95R
PORT LAVACA    DRIZZLE   76  76  97 SE10      29.97R
CORPUS CHRISTI PTSUNNY   88  75  65 S6        29.93R
KINGSVILLE NAS PTSUNNY   91  76  61 S9        29.92R
COTULLA        LGT RAIN  80  77  90 NE7       29.94R FOG
LAREDO         MOSUNNY   88  75  65 S7        29.92R
BROWNSVILLE    MOSUNNY   92  73  53 S16G24    29.92R
PORT ISABEL    MOSUNNY   92  73  53 S15       29.91S
HEBBRONVILLE   MOSUNNY   89  72  57 S8        29.92F
MCALLEN        MOSUNNY   93  71  48 SE20      29.90F
WESLACO        MOSUNNY   84  20   9 S14G21    29.90S
FALFURRIAS     SUNNY     91  70  50 S12       29.91R
EDINBURG       MOSUNNY   92  69  45 S16G22    29.91R
$$




USA.gov is the U.S. government's official web portal to all federal, state and local government web resources and services.